| time (UTC) | temp F | wind direction | speed knots | gust knots | rain 1hr in | rain 24hr in | rain mn in | humidity % | barometer mb |
| 20260506191338 | 54 | 157 | 0.0 | 4.3 | 0.00 | 2.97 | 0.00 | 79 | 1003.9 |
| 20260506190838 | 54 | 180 | 0.0 | 0.0 | 0.00 | 2.97 | 0.00 | 79 | 1003.7 |
| 20260506190338 | 54 | 180 | 0.0 | 0.0 | 0.00 | 2.97 | 0.00 | 79 | 1003.8 |
| 20260506185838 | 54 | 112 | 0.0 | 0.9 | 0.00 | 2.97 | 0.00 | 79 | 1003.7 |
| 20260506185446 | 54 | 112 | 0.0 | 4.3 | 0.00 | 2.97 | 0.00 | 79 | 1003.6 |
| 20260506185338 | 54 | 112 | 0.0 | 4.3 | 0.00 | 2.97 | 0.00 | 79 | 1003.6 |
| 20260506184838 | 54 | 112 | 0.0 | 7.8 | 0.00 | 2.97 | 0.00 | 79 | 1003.7 |
| 20260506184338 | 55 | 135 | 7.8 | 8.7 | 0.00 | 2.97 | 0.00 | 79 | 1003.6 |
| 20260506183838 | 55 | 67 | 7.8 | 8.7 | 0.00 | 2.97 | 0.00 | 79 | 1003.6 |
| 20260506183338 | 55 | 90 | 0.0 | 7.8 | 0.00 | 2.97 | 0.00 | 78 | 1003.4 |
| 20260506182838 | 55 | 112 | 5.2 | 14.8 | 0.00 | 2.97 | 0.00 | 78 | 1003.3 |
| 20260506182415 | 55 | 135 | 5.2 | 7.8 | 0.00 | 2.97 | 0.00 | 78 | 1003.4 |
| 20260506182338 | 55 | 135 | 5.2 | 7.8 | 0.00 | 2.97 | 0.00 | 78 | 1003.4 |
| 20260506181838 | 55 | 157 | 4.3 | 13.0 | 0.00 | 2.97 | 0.00 | 78 | 1003.3 |
| 20260506181338 | 55 | 157 | 8.7 | 8.7 | 0.00 | 2.97 | 0.00 | 78 | 1003.3 |
| 20260506180838 | 56 | 135 | 5.2 | 7.8 | 0.00 | 2.97 | 0.00 | 78 | 1003.3 |
| 20260506180338 | 56 | 157 | 5.2 | 7.0 | 0.00 | 2.97 | 0.00 | 78 | 1003.2 |
| 20260506175838 | 56 | 90 | 3.5 | 5.2 | 0.00 | 2.97 | 0.00 | 78 | 1003.1 |
| 20260506175410 | 56 | 112 | 0.0 | 5.2 | 0.00 | 2.97 | 0.00 | 77 | 1003.3 |
| 20260506175338 | 56 | 112 | 0.0 | 5.2 | 0.00 | 2.97 | 0.00 | 77 | 1003.3 |
| 20260506174838 | 56 | 67 | 0.0 | 5.2 | 0.00 | 2.97 | 0.00 | 77 | 1003.1 |
| 20260506174338 | 56 | 135 | 0.0 | 5.2 | 0.00 | 2.97 | 0.00 | 77 | 1003.1 |
| 20260506173838 | 57 | 135 | 0.0 | 8.7 | 0.00 | 2.97 | 0.00 | 77 | 1003.1 |
| 20260506173338 | 57 | 135 | 7.0 | 7.0 | 0.00 | 2.97 | 0.00 | 76 | 1003.0 |
| 20260506172838 | 57 | 135 | 0.0 | 7.8 | 0.00 | 2.97 | 0.00 | 76 | 1002.9 |
| 20260506172338 | 57 | 135 | 0.0 | 3.5 | 0.00 | 2.97 | 0.00 | 76 | 1002.8 |
| 20260506171838 | 57 | 112 | 0.0 | 5.2 | 0.00 | 2.97 | 0.00 | 76 | 1002.6 |
| 20260506171338 | 57 | 112 | 0.0 | 7.0 | 0.00 | 2.97 | 0.00 | 76 | 1002.6 |
| 20260506170838 | 57 | 112 | 0.0 | 9.6 | 0.00 | 2.97 | 0.00 | 76 | 1002.7 |
| 20260506170338 | 57 | 90 | 0.0 | 12.2 | 0.00 | 2.97 | 0.00 | 76 | 1002.6 |
| 20260506165838 | 57 | 90 | 12.2 | 15.6 | 0.00 | 2.97 | 0.00 | 76 | 1002.5 |
| 20260506165338 | 57 | 112 | 0.0 | 13.9 | 0.00 | 2.97 | 0.00 | 77 | 1002.6 |
| 20260506164838 | 57 | 135 | 8.7 | 9.6 | 0.00 | 2.97 | 0.00 | 77 | 1002.6 |
| 20260506164338 | 57 | 157 | 3.5 | 10.4 | 0.00 | 2.97 | 0.00 | 78 | 1002.6 |
| 20260506163838 | 56 | 157 | 5.2 | 8.7 | 0.00 | 2.97 | 0.00 | 78 | 1002.4 |
| 20260506163338 | 57 | 67 | 0.0 | 10.4 | 0.00 | 2.97 | 0.00 | 78 | 1002.4 |
| 20260506162838 | 57 | 112 | 0.9 | 6.1 | 0.00 | 2.97 | 0.00 | 77 | 1002.5 |
| 20260506162513 | 57 | 112 | 4.3 | 8.7 | 0.00 | 2.97 | 0.00 | 76 | 1002.5 |
| 20260506162338 | 57 | 112 | 3.5 | 8.7 | 0.00 | 2.97 | 0.00 | 76 | 1002.6 |
| 20260506161838 | 57 | 112 | 4.3 | 8.7 | 0.00 | 2.97 | 0.00 | 76 | 1002.5 |
| 20260506161338 | 57 | 90 | 7.8 | 11.3 | 0.00 | 2.97 | 0.00 | 76 | 1002.5 |
| 20260506160838 | 57 | 112 | 0.0 | 9.6 | 0.00 | 2.97 | 0.00 | 76 | 1002.6 |
| 20260506160339 | 57 | 90 | 7.0 | 7.0 | 0.00 | 2.97 | 0.00 | 76 | 1002.6 |
| 20260506155838 | 57 | 135 | 4.3 | 10.4 | 0.00 | 2.97 | 0.00 | 76 | 1002.6 |
| 20260506155338 | 57 | 112 | 7.0 | 7.0 | 0.00 | 2.97 | 0.00 | 76 | 1002.7 |
| 20260506154838 | 57 | 135 | 6.1 | 8.7 | 0.00 | 2.97 | 0.00 | 77 | 1002.6 |
| 20260506154338 | 57 | 112 | 7.8 | 7.8 | 0.00 | 2.97 | 0.00 | 77 | 1002.6 |
| 20260506153838 | 57 | 112 | 0.0 | 6.1 | 0.00 | 2.97 | 0.00 | 78 | 1002.6 |
| 20260506153338 | 57 | 112 | 1.7 | 7.0 | 0.00 | 2.97 | 0.00 | 78 | 1002.6 |
| 20260506152838 | 57 | 112 | 7.0 | 7.0 | 0.00 | 2.97 | 0.00 | 78 | 1002.7 |
| 20260506152338 | 57 | 67 | 3.5 | 8.7 | 0.00 | 2.97 | 0.00 | 78 | 1002.6 |
| 20260506151838 | 57 | 112 | 0.0 | 4.3 | 0.00 | 2.97 | 0.00 | 78 | 1002.8 |
| 20260506151338 | 56 | 112 | 0.0 | 6.1 | 0.00 | 2.97 | 0.00 | 78 | 1002.7 |
| 20260506150838 | 56 | 135 | 6.1 | 7.8 | 0.00 | 2.97 | 0.00 | 78 | 1002.9 |
| 20260506150338 | 56 | 90 | 7.8 | 7.8 | 0.00 | 2.97 | 0.00 | 79 | 1002.9 |
| 20260506145838 | 55 | 112 | 5.2 | 6.1 | 0.00 | 2.97 | 0.00 | 79 | 1002.8 |
| 20260506145338 | 55 | 90 | 6.1 | 7.8 | 0.00 | 2.97 | 0.00 | 79 | 1002.8 |
| 20260506144838 | 55 | 90 | 1.7 | 8.7 | 0.00 | 2.97 | 0.00 | 79 | 1002.8 |
| 20260506144338 | 55 | 90 | 0.0 | 6.1 | 0.00 | 2.97 | 0.00 | 79 | 1002.9 |
| 20260506143838 | 55 | 135 | 0.0 | 4.3 | 0.00 | 2.97 | 0.00 | 79 | 1002.9 |
| 20260506143338 | 55 | 112 | 4.3 | 6.1 | 0.00 | 2.97 | 0.00 | 79 | 1003.0 |
| 20260506142838 | 55 | 157 | 0.0 | 0.0 | 0.00 | 2.97 | 0.00 | 79 | 1003.0 |
| 20260506142338 | 55 | 67 | 0.0 | 0.0 | 0.00 | 2.97 | 0.00 | 79 | 1003.0 |
| 20260506141838 | 55 | 67 | 0.0 | 0.0 | 0.00 | 2.97 | 0.00 | 79 | 1003.1 |
| 20260506141338 | 55 | 90 | 0.0 | 2.6 | 0.00 | 2.97 | 0.00 | 79 | 1003.1 |
| 20260506140838 | 54 | 112 | 0.0 | 3.5 | 0.00 | 2.97 | 0.00 | 79 | 1003.2 |
| 20260506140338 | 54 | 67 | 0.0 | 0.9 | 0.00 | 2.97 | 0.00 | 79 | 1003.4 |
| 20260506135838 | 54 | 157 | 0.0 | 0.0 | 0.02 | 2.97 | 0.00 | 79 | 1003.6 |
| 20260506135338 | 54 | 157 | 0.0 | 0.0 | 0.02 | 2.97 | 0.00 | 79 | 1003.6 |
| 20260506134838 | 54 | 180 | 0.0 | 0.0 | 0.02 | 2.97 | 0.00 | 78 | 1003.7 |
| 20260506134338 | 54 | 67 | 0.0 | 0.0 | 2.85 | 2.97 | 0.00 | 78 | 1003.8 |
| 20260506133838 | 55 | 292 | 0.0 | 0.0 | 2.91 | 2.97 | 0.00 | 78 | 1003.7 |
| 20260506133338 | 55 | 45 | 0.0 | 7.8 | 2.91 | 2.97 | 0.00 | 78 | 1003.7 |
| 20260506132838 | 54 | 45 | 0.0 | 6.1 | 2.91 | 2.97 | 0.00 | 78 | 1003.8 |
| 20260506132409 | 54 | 67 | 0.0 | 6.1 | 2.91 | 2.97 | 0.00 | 79 | 1004.0 |
| 20260506132338 | 54 | 67 | 0.0 | 6.1 | 2.91 | 2.97 | 0.00 | 79 | 1004.0 |
| 20260506131838 | 54 | 45 | 6.1 | 7.8 | 2.91 | 2.97 | 0.00 | 79 | 1004.0 |
| 20260506131338 | 54 | 22 | 1.7 | 5.2 | 2.91 | 2.97 | 0.00 | 79 | 1003.9 |
| 20260506130838 | 54 | 45 | 3.5 | 5.2 | 2.91 | 2.97 | 0.00 | 79 | 1003.8 |
| 20260506130338 | 54 | 67 | 0.0 | 1.7 | 2.89 | 2.95 | 0.00 | 78 | 1003.9 |
| 20260506125838 | 54 | 90 | 0.0 | 0.0 | 2.89 | 2.95 | 0.00 | 78 | 1003.8 |
| 20260506125338 | 55 | 90 | 0.0 | 0.0 | 2.89 | 2.95 | 0.00 | 77 | 1003.8 |
| 20260506124838 | 55 | 180 | 0.0 | 7.0 | 1.38 | 1.44 | 0.00 | 77 | 1004.0 |
| 20260506124338 | 57 | 202 | 5.2 | 9.6 | 0.00 | 0.06 | 0.00 | 77 | 1003.7 |
| 20260506123838 | 57 | 157 | 0.0 | 12.2 | 0.00 | 0.06 | 0.00 | 77 | 1003.6 |
| 20260506123338 | 57 | 112 | 3.5 | 17.4 | 0.00 | 0.06 | 0.00 | 77 | 1003.1 |
| 20260506122838 | 57 | 135 | 10.4 | 17.4 | 0.00 | 0.06 | 0.00 | 76 | 1002.8 |
| 20260506122338 | 57 | 112 | 12.2 | 18.2 | 0.00 | 0.06 | 0.00 | 76 | 1002.6 |
| 20260506121838 | 58 | 67 | 3.5 | 14.8 | 0.00 | 0.06 | 0.00 | 75 | 1002.7 |
| 20260506121338 | 59 | 67 | 14.8 | 20.9 | 0.00 | 0.06 | 0.00 | 74 | 1002.8 |
| 20260506120838 | 60 | 45 | 7.8 | 20.9 | 0.00 | 0.06 | 0.00 | 74 | 1002.8 |
| 20260506120338 | 59 | 135 | 3.5 | 20.9 | 0.00 | 0.06 | 0.00 | 73 | 1002.8 |
| 20260506115838 | 59 | 67 | 18.2 | 20.0 | 0.00 | 0.06 | 0.00 | 73 | 1002.6 |
| 20260506115339 | 59 | 67 | 0.0 | 16.5 | 0.00 | 0.06 | 0.00 | 72 | 1002.7 |
| 20260506114839 | 60 | 90 | 9.6 | 21.7 | 0.00 | 0.06 | 0.00 | 71 | 1002.6 |
| 20260506114338 | 60 | 135 | 4.3 | 17.4 | 0.00 | 0.06 | 0.00 | 71 | 1002.5 |
| 20260506113839 | 60 | 90 | 8.7 | 14.8 | 0.00 | 0.06 | 0.00 | 71 | 1002.6 |
| 20260506113339 | 60 | 67 | 7.0 | 13.9 | 0.00 | 0.06 | 0.00 | 70 | 1002.7 |
| 20260506112839 | 60 | 67 | 5.2 | 19.1 | 0.00 | 0.06 | 0.00 | 70 | 1002.8 |
| 20260506112339 | 61 | 112 | 4.3 | 23.5 | 0.00 | 0.06 | 0.00 | 69 | 1002.8 |
| 20260506111839 | 61 | 112 | 11.3 | 21.7 | 0.00 | 0.06 | 0.00 | 70 | 1002.9 |
| 20260506111339 | 61 | 45 | 0.0 | 11.3 | 0.00 | 0.06 | 0.00 | 72 | 1002.7 |
| 20260506110839 | 60 | 90 | 4.3 | 14.8 | 0.00 | 0.06 | 0.00 | 71 | 1003.0 |
| 20260506110339 | 60 | 135 | 11.3 | 12.2 | 0.00 | 0.06 | 0.00 | 72 | 1003.0 |
| 20260506105839 | 59 | 67 | 12.2 | 13.0 | 0.00 | 0.06 | 0.00 | 73 | 1003.2 |
| 20260506105339 | 58 | 67 | 8.7 | 19.1 | 0.00 | 0.06 | 0.00 | 73 | 1003.3 |
| 20260506104839 | 58 | 157 | 14.8 | 14.8 | 0.00 | 0.06 | 0.00 | 72 | 1003.6 |
| 20260506104339 | 59 | 67 | 6.1 | 12.2 | 0.00 | 0.06 | 0.00 | 72 | 1003.6 |
| 20260506103839 | 58 | 45 | 0.0 | 14.8 | 0.00 | 0.06 | 0.00 | 71 | 1003.5 |
| 20260506103339 | 58 | 90 | 7.0 | 20.0 | 0.00 | 0.06 | 0.00 | 72 | 1003.6 |
| 20260506102839 | 58 | 67 | 2.6 | 13.0 | 0.00 | 0.06 | 0.00 | 73 | 1003.6 |
| 20260506102339 | 59 | 112 | 7.8 | 18.2 | 0.00 | 0.06 | 0.00 | 73 | 1003.6 |
| 20260506101839 | 59 | 112 | 13.0 | 16.5 | 0.00 | 0.06 | 0.00 | 73 | 1003.6 |
| 20260506101339 | 59 | 90 | 3.5 | 13.9 | 0.00 | 0.06 | 0.00 | 73 | 1003.6 |
| 20260506100839 | 59 | 90 | 8.7 | 13.9 | 0.00 | 0.06 | 0.00 | 74 | 1003.7 |
| 20260506100339 | 58 | 112 | 13.9 | 13.9 | 0.00 | 0.06 | 0.00 | 73 | 1003.6 |
| 20260506095839 | 58 | 135 | 8.7 | 13.9 | 0.00 | 0.06 | 0.00 | 73 | 1003.7 |
| 20260506095339 | 57 | 90 | 12.2 | 19.1 | 0.00 | 0.06 | 0.00 | 73 | 1003.7 |
| 20260506094839 | 57 | 90 | 11.3 | 13.9 | 0.00 | 0.06 | 0.00 | 75 | 1003.7 |
| 20260506094339 | 57 | 67 | 8.7 | 12.2 | 0.00 | 0.06 | 0.00 | 76 | 1003.7 |
| 20260506093839 | 58 | 135 | 7.0 | 9.6 | 0.00 | 0.06 | 0.00 | 77 | 1003.9 |
| 20260506093339 | 58 | 112 | 3.5 | 12.2 | 0.00 | 0.06 | 0.00 | 77 | 1003.8 |
| 20260506092839 | 58 | 67 | 2.6 | 12.2 | 0.00 | 0.06 | 0.00 | 77 | 1003.7 |
| 20260506092339 | 58 | 67 | 5.2 | 9.6 | 0.00 | 0.06 | 0.00 | 78 | 1003.7 |
| 20260506091839 | 58 | 67 | 0.0 | 11.3 | 0.00 | 0.06 | 0.00 | 78 | 1003.7 |
| 20260506091339 | 58 | 67 | 3.5 | 7.0 | 0.00 | 0.06 | 0.00 | 79 | 1003.8 |
| 20260506090839 | 57 | 135 | 8.7 | 8.7 | 0.00 | 0.06 | 0.00 | 79 | 1003.8 |
| 20260506090339 | 57 | 135 | 7.8 | 7.8 | 0.00 | 0.06 | 0.00 | 79 | 1003.9 |
| 20260506085839 | 56 | 157 | 0.0 | 8.7 | 0.00 | 0.06 | 0.00 | 79 | 1003.8 |
| 20260506085339 | 55 | 157 | 0.0 | 3.5 | 0.00 | 0.06 | 0.00 | 79 | 1003.8 |
| 20260506084839 | 54 | 180 | 0.0 | 3.5 | 0.00 | 0.06 | 0.00 | 79 | 1003.8 |
| 20260506084339 | 54 | 180 | 0.0 | 5.2 | 0.00 | 0.06 | 0.00 | 79 | 1003.8 |
| 20260506083839 | 54 | 157 | 4.3 | 7.8 | 0.00 | 0.06 | 0.00 | 79 | 1004.0 |
| 20260506083339 | 53 | 135 | 0.0 | 7.8 | 0.00 | 0.06 | 0.00 | 78 | 1003.9 |
| 20260506082839 | 53 | 67 | 0.0 | 7.8 | 0.00 | 0.06 | 0.00 | 78 | 1004.0 |
| 20260506082339 | 52 | 135 | 6.1 | 12.2 | 0.00 | 0.06 | 0.00 | 78 | 1004.0 |
| 20260506081839 | 51 | 112 | 5.2 | 11.3 | 0.02 | 0.06 | 0.00 | 77 | 1004.0 |
| 20260506081339 | 51 | 112 | 5.2 | 9.6 | 0.02 | 0.06 | 0.00 | 77 | 1004.1 |
| 20260506080839 | 51 | 135 | 7.8 | 11.3 | 0.02 | 0.06 | 0.00 | 77 | 1004.3 |
| 20260506080339 | 50 | 135 | 7.0 | 13.0 | 0.02 | 0.06 | 0.00 | 76 | 1004.4 |
| 20260506073339 | 49 | 135 | 3.5 | 13.0 | 0.06 | 0.06 | 0.00 | 76 | 1004.5 |
| 20260506072839 | 49 | 135 | 7.8 | 11.3 | 0.06 | 0.06 | 0.00 | 76 | 1004.6 |
| 20260506072339 | 49 | 67 | 3.5 | 7.8 | 0.04 | 0.04 | 0.00 | 76 | 1004.7 |
| 20260506071839 | 48 | 112 | 0.0 | 8.7 | 0.04 | 0.04 | 0.00 | 77 | 1004.6 |
| 20260506071339 | 48 | 135 | 6.1 | 11.3 | 0.04 | 0.04 | 0.00 | 77 | 1004.6 |
| 20260506070839 | 48 | 112 | 3.5 | 10.4 | 0.04 | 0.04 | 0.00 | 77 | 1004.7 |
| 20260506070339 | 48 | 112 | 3.5 | 8.7 | 0.04 | 0.04 | 0.00 | 77 | 1004.7 |
| 20260506062339 | 48 | 180 | 0.0 | 0.0 | 0.00 | 0.00 | 0.00 | 78 | 1004.7 |
| 20260506061839 | 48 | 135 | 0.0 | 0.0 | 0.00 | 0.00 | 0.00 | 78 | 1004.8 |
| 20260506061339 | 48 | 112 | 0.0 | 0.0 | 0.00 | 0.00 | 0.00 | 78 | 1004.7 |
| 20260506060839 | 48 | 90 | 0.0 | 0.0 | 0.00 | 0.00 | 0.00 | 78 | 1004.8 |
| 20260506060339 | 49 | 67 | 0.0 | 6.1 | 0.00 | 0.00 | 0.00 | 78 | 1004.8 |
| 20260506051339 | 48 | 180 | 0.0 | 0.0 | 0.00 | 0.00 | 0.00 | 77 | 1004.5 |
| 20260506050839 | 48 | 135 | 0.0 | 0.0 | 0.00 | 0.00 | 0.00 | 77 | 1004.4 |
| 20260506050339 | 48 | 157 | 0.0 | 5.2 | 0.00 | 0.00 | 0.00 | 77 | 1004.4 |
| 20260506044839 | 48 | 67 | 0.0 | 7.0 | 0.00 | 0.00 | 0.00 | 77 | 1004.5 |
| 20260506044339 | 48 | 67 | 0.0 | 4.3 | 0.00 | 0.00 | 0.00 | 77 | 1004.3 |
| 20260506043839 | 48 | 67 | 0.0 | 3.5 | 0.00 | 0.00 | 0.00 | 77 | 1004.4 |
| 20260506043339 | 48 | 135 | 0.0 | 5.2 | 0.00 | 0.00 | 0.00 | 77 | 1004.4 |
| 20260506042839 | 48 | 67 | 0.0 | 0.0 | 0.00 | 0.00 | 0.00 | 77 | 1004.4 |
| 20260506042339 | 48 | 67 | 0.0 | 0.0 | 0.00 | 0.00 | 0.00 | 78 | 1004.2 |
| 20260506041839 | 48 | 67 | 0.0 | 5.2 | 0.00 | 0.00 | 0.00 | 77 | 1004.3 |
| 20260506041339 | 48 | 112 | 5.2 | 7.0 | 0.00 | 0.00 | 0.00 | 77 | 1004.4 |
| 20260506040839 | 48 | 90 | 4.3 | 10.4 | 0.00 | 0.00 | 0.00 | 77 | 1004.4 |
| 20260506040339 | 47 | 135 | 0.0 | 5.2 | 0.00 | 0.00 | 0.00 | 77 | 1004.4 |
| 20260506035839 | 47 | 247 | 0.0 | 5.2 | 0.00 | 0.00 | 0.00 | 77 | 1004.5 |
| 20260506035339 | 47 | 202 | 0.9 | 6.1 | 0.00 | 0.00 | 0.00 | 77 | 1004.8 |
| 20260506034840 | 47 | 90 | 0.0 | 0.0 | 0.00 | 0.00 | 0.00 | 77 | 1004.8 |
| 20260506034339 | 47 | 67 | 0.0 | 0.0 | 0.00 | 0.00 | 0.00 | 77 | 1004.7 |
| 20260506033839 | 47 | 67 | 0.0 | 0.0 | 0.00 | 0.00 | 0.00 | 77 | 1004.8 |
| 20260506033339 | 47 | 67 | 0.0 | 0.0 | 0.00 | 0.00 | 0.00 | 77 | 1005.0 |
| 20260506032839 | 47 | 157 | 0.0 | 5.2 | 0.00 | 0.00 | 0.00 | 76 | 1004.9 |
| 20260506032339 | 46 | 157 | 2.6 | 7.0 | 0.00 | 0.00 | 0.00 | 76 | 1005.0 |
| 20260506031839 | 46 | 180 | 2.6 | 7.8 | 0.00 | 0.00 | 0.00 | 77 | 1005.1 |
| 20260506031339 | 47 | 157 | 5.2 | 7.0 | 0.00 | 0.00 | 0.00 | 77 | 1005.0 |
| 20260506030839 | 47 | 112 | 4.3 | 4.3 | 0.00 | 0.00 | 0.00 | 77 | 1005.1 |
| 20260506030340 | 47 | 112 | 0.0 | 1.7 | 0.00 | 0.00 | 0.00 | 77 | 1005.3 |
| 20260506025839 | 47 | 90 | 0.0 | 3.5 | 0.00 | 0.00 | 0.00 | 77 | 1005.4 |
| 20260506025340 | 47 | 45 | 0.0 | 3.5 | 0.00 | 0.00 | 0.00 | 77 | 1005.3 |
| 20260506024840 | 47 | 112 | 0.0 | 0.0 | 0.00 | 0.00 | 0.00 | 77 | 1005.4 |
| 20260506024340 | 47 | 157 | 0.0 | 0.0 | 0.00 | 0.00 | 0.00 | 77 | 1005.5 |
| 20260506023840 | 47 | 157 | 0.0 | 0.0 | 0.00 | 0.00 | 0.00 | 77 | 1005.4 |
| 20260506023340 | 47 | 112 | 0.0 | 0.0 | 0.00 | 0.00 | 0.00 | 77 | 1005.3 |
| 20260506022840 | 47 | 157 | 0.0 | 0.0 | 0.00 | 0.00 | 0.00 | 77 | 1005.1 |
| 20260506022340 | 47 | 90 | 0.0 | 0.0 | 0.00 | 0.00 | 0.00 | 77 | 1005.3 |
| 20260506021840 | 47 | 67 | 0.0 | 0.0 | 0.00 | 0.00 | 0.00 | 77 | 1005.1 |
| 20260506021340 | 47 | 67 | 0.0 | 0.0 | 0.00 | 0.00 | 0.00 | 77 | 1005.2 |
| 20260506020840 | 47 | 180 | 0.0 | 0.0 | 0.00 | 0.00 | 0.00 | 77 | 1005.2 |
| 20260506020340 | 47 | 180 | 0.0 | 0.0 | 0.00 | 0.00 | 0.00 | 77 | 1005.1 |
| 20260506015840 | 47 | 180 | 0.0 | 0.0 | 0.00 | 0.00 | 0.00 | 77 | 1005.0 |
| 20260506015340 | 47 | 157 | 0.0 | 0.0 | 0.00 | 0.00 | 0.00 | 77 | 1005.0 |
| 20260506014840 | 47 | 157 | 0.0 | 0.0 | 0.00 | 0.00 | 0.00 | 77 | 1005.4 |
| 20260506014340 | 46 | 157 | 0.0 | 0.0 | 0.00 | 0.00 | 0.00 | 77 | 1005.6 |
| 20260506013840 | 46 | 157 | 0.0 | 0.0 | 0.00 | 0.00 | 0.00 | 77 | 1005.6 |
| 20260506013340 | 46 | 112 | 0.0 | 0.0 | 0.00 | 0.00 | 0.00 | 77 | 1005.6 |
| 20260506012840 | 47 | 90 | 0.0 | 0.0 | 0.00 | 0.00 | 0.00 | 77 | 1005.7 |
| 20260506012340 | 47 | 67 | 0.0 | 0.0 | 0.00 | 0.00 | 0.00 | 77 | 1005.7 |
| 20260506011840 | 47 | 112 | 0.0 | 0.0 | 0.00 | 0.00 | 0.00 | 77 | 1005.6 |
| 20260506011340 | 47 | 135 | 0.0 | 0.0 | 0.00 | 0.00 | 0.00 | 77 | 1005.7 |
| 20260506010840 | 47 | 112 | 0.0 | 0.0 | 0.00 | 0.00 | 0.00 | 77 | 1005.6 |
| 20260506010340 | 47 | 135 | 0.0 | 0.0 | 0.00 | 0.00 | 0.00 | 77 | 1005.6 |
| 20260506005840 | 47 | 135 | 0.0 | 0.0 | 0.00 | 0.00 | 0.00 | 77 | 1005.5 |
| 20260506005340 | 47 | 135 | 0.0 | 0.0 | 0.00 | 0.00 | 0.00 | 77 | 1005.6 |
| 20260506004840 | 47 | 90 | 0.0 | 0.0 | 0.00 | 0.00 | 0.00 | 77 | 1005.7 |
| 20260506004340 | 47 | 67 | 0.0 | 0.0 | 0.00 | 0.00 | 0.00 | 77 | 1005.8 |
| 20260506003840 | 47 | 67 | 0.0 | 0.0 | 0.00 | 0.00 | 0.00 | 77 | 1005.7 |
| 20260506003340 | 47 | 67 | 0.0 | 0.0 | 0.00 | 0.00 | 0.00 | 78 | 1005.7 |
| 20260506002840 | 48 | 67 | 0.0 | 0.0 | 0.00 | 0.00 | 0.00 | 78 | 1005.8 |
| 20260506002340 | 48 | 67 | 0.0 | 0.0 | 0.00 | 0.00 | 0.00 | 78 | 1005.8 |
| 20260506001840 | 48 | 67 | 0.0 | 0.0 | 0.00 | 0.00 | 0.00 | 78 | 1006.0 |
| 20260506001340 | 48 | 67 | 0.0 | 0.0 | 0.00 | 0.00 | 0.00 | 78 | 1005.9 |
| 20260506000840 | 48 | 67 | 0.0 | 0.0 | 0.00 | 0.00 | 0.00 | 78 | 1005.8 |
| 20260506000340 | 48 | 67 | 0.0 | 0.0 | 0.00 | 0.00 | 0.00 | 78 | 1005.8 |
| 20260505235840 | 48 | 67 | 0.0 | 0.0 | 0.00 | 0.00 | 0.00 | 78 | 1005.9 |
| 20260505235340 | 48 | 67 | 0.0 | 0.0 | 0.00 | 0.00 | 0.00 | 78 | 1006.0 |
| 20260505234840 | 48 | 67 | 0.0 | 0.0 | 0.00 | 0.00 | 0.00 | 78 | 1006.0 |
| 20260505234340 | 49 | 157 | 0.0 | 0.0 | 0.00 | 0.00 | 0.00 | 78 | 1006.0 |
| 20260505233840 | 49 | 157 | 0.0 | 0.0 | 0.00 | 0.00 | 0.00 | 78 | 1006.0 |
| 20260505233340 | 49 | 157 | 0.0 | 0.0 | 0.00 | 0.00 | 0.00 | 78 | 1006.0 |
| 20260505232840 | 49 | 157 | 0.0 | 0.0 | 0.00 | 0.00 | 0.00 | 78 | 1006.1 |
| 20260505232340 | 49 | 112 | 0.0 | 0.0 | 0.00 | 0.00 | 0.00 | 78 | 1006.2 |
| 20260505231840 | 49 | 112 | 0.0 | 0.0 | 0.00 | 0.00 | 0.00 | 78 | 1006.3 |
| 20260505231340 | 49 | 112 | 0.0 | 0.0 | 0.00 | 0.00 | 0.00 | 78 | 1006.3 |
| 20260505230840 | 49 | 112 | 0.0 | 0.0 | 0.00 | 0.00 | 0.00 | 78 | 1006.2 |
| 20260505230340 | 49 | 90 | 0.0 | 0.0 | 0.00 | 0.00 | 0.00 | 78 | 1006.2 |
| 20260505225840 | 49 | 67 | 0.0 | 0.0 | 0.00 | 0.00 | 0.00 | 78 | 1006.1 |
| 20260505225340 | 49 | 90 | 0.0 | 0.0 | 0.00 | 0.00 | 0.00 | 78 | 1006.1 |
| 20260505224840 | 49 | 112 | 0.0 | 0.0 | 0.00 | 0.00 | 0.00 | 78 | 1006.1 |
| 20260505224340 | 49 | 112 | 0.0 | 0.0 | 0.00 | 0.00 | 0.00 | 78 | 1006.2 |
| 20260505223840 | 49 | 112 | 0.0 | 0.0 | 0.00 | 0.00 | 0.00 | 78 | 1006.2 |
| 20260505223340 | 49 | 112 | 0.0 | 0.0 | 0.00 | 0.00 | 0.00 | 78 | 1006.3 |
| 20260505222840 | 49 | 90 | 0.0 | 0.0 | 0.00 | 0.00 | 0.00 | 78 | 1006.3 |
| 20260505222340 | 49 | 67 | 0.0 | 0.0 | 0.00 | 0.00 | 0.00 | 78 | 1006.3 |
| 20260505221840 | 49 | 112 | 0.0 | 0.0 | 0.00 | 0.00 | 0.00 | 78 | 1006.3 |
| 20260505221340 | 49 | 112 | 0.0 | 0.0 | 0.00 | 0.00 | 0.00 | 78 | 1006.3 |
| 20260505220840 | 49 | 157 | 0.0 | 0.0 | 0.00 | 0.00 | 0.00 | 78 | 1006.3 |
| 20260505220340 | 49 | 112 | 0.0 | 0.0 | 0.00 | 0.00 | 0.00 | 78 | 1006.3 |
| 20260505215840 | 49 | 157 | 0.0 | 1.7 | 0.00 | 0.00 | 0.00 | 78 | 1006.3 |
| 20260505215340 | 49 | 90 | 0.0 | 0.0 | 0.00 | 0.04 | 0.00 | 78 | 1006.3 |
| 20260505214840 | 49 | 157 | 0.0 | 0.0 | 0.00 | 0.04 | 0.00 | 78 | 1006.4 |
| 20260505214340 | 49 | 112 | 0.0 | 3.5 | 0.00 | 0.04 | 0.00 | 78 | 1006.3 |
| 20260505213840 | 49 | 157 | 0.0 | 5.2 | 0.00 | 0.04 | 0.00 | 78 | 1006.3 |
| 20260505213340 | 49 | 112 | 0.0 | 5.2 | 0.00 | 0.04 | 0.00 | 77 | 1006.5 |
| 20260505212840 | 49 | 67 | 5.2 | 9.6 | 0.00 | 0.04 | 0.00 | 77 | 1006.4 |
| 20260505212340 | 49 | 90 | 6.1 | 7.0 | 0.00 | 0.04 | 0.00 | 78 | 1006.5 |
| 20260505211840 | 50 | 45 | 4.3 | 7.0 | 0.00 | 0.04 | 0.00 | 78 | 1006.6 |
| 20260505211340 | 50 | 90 | 0.0 | 6.1 | 0.00 | 0.04 | 0.00 | 78 | 1006.6 |
| 20260505210840 | 50 | 45 | 6.1 | 6.1 | 0.00 | 0.04 | 0.00 | 78 | 1006.6 |
| 20260505210340 | 50 | 90 | 0.0 | 6.1 | 0.00 | 0.04 | 0.00 | 78 | 1006.6 |
| 20260505205840 | 51 | 67 | 4.3 | 8.7 | 0.00 | 0.04 | 0.00 | 78 | 1006.6 |
| 20260505205340 | 51 | 67 | 8.7 | 8.7 | 0.00 | 0.04 | 0.00 | 79 | 1006.5 |
| 20260505204840 | 51 | 67 | 0.9 | 3.5 | 0.00 | 0.04 | 0.00 | 79 | 1006.6 |
| 20260505204340 | 51 | 135 | 0.9 | 5.2 | 0.00 | 0.04 | 0.00 | 79 | 1006.6 |
| 20260505203840 | 51 | 112 | 4.3 | 6.1 | 0.00 | 0.04 | 0.00 | 79 | 1006.4 |
| 20260505203340 | 51 | 67 | 1.7 | 5.2 | 0.00 | 0.04 | 0.00 | 79 | 1006.4 |
| 20260505202840 | 52 | 112 | 0.0 | 8.7 | 0.00 | 0.04 | 0.00 | 79 | 1006.6 |
| 20260505202340 | 52 | 67 | 5.2 | 8.7 | 0.00 | 0.04 | 0.00 | 79 | 1006.5 |
| 20260505201840 | 52 | 90 | 0.9 | 5.2 | 0.00 | 0.04 | 0.00 | 79 | 1006.6 |
| 20260505201340 | 52 | 135 | 0.0 | 10.4 | 0.00 | 0.04 | 0.00 | 79 | 1006.7 |
| 20260505200840 | 52 | 112 | 4.3 | 7.0 | 0.00 | 0.04 | 0.00 | 79 | 1006.7 |
| 20260505200340 | 52 | 90 | 0.0 | 0.0 | 0.00 | 0.04 | 0.00 | 79 | 1006.7 |
| 20260505195840 | 52 | 157 | 0.0 | 0.0 | 0.00 | 0.04 | 0.00 | 79 | 1006.7 |
| 20260505195340 | 52 | 157 | 0.0 | 0.0 | 0.00 | 0.04 | 0.00 | 79 | 1006.6 |
| 20260505194840 | 52 | 112 | 0.0 | 0.0 | 0.00 | 0.04 | 0.00 | 79 | 1006.6 |
| 20260505194340 | 51 | 112 | 0.0 | 5.2 | 0.00 | 0.04 | 0.00 | 79 | 1006.5 |
| 20260505193840 | 51 | 90 | 0.0 | 0.9 | 0.00 | 0.04 | 0.00 | 79 | 1006.5 |
| 20260505193340 | 51 | 90 | 0.0 | 4.3 | 0.00 | 0.04 | 0.00 | 79 | 1006.4 |
| 20260505192840 | 51 | 157 | 2.6 | 5.2 | 0.00 | 0.04 | 0.00 | 79 | 1006.5 |
| 20260505192340 | 51 | 135 | 2.6 | 5.2 | 0.00 | 0.04 | 0.00 | 79 | 1006.6 |
| 20260505191840 | 51 | 135 | 3.5 | 5.2 | 0.00 | 0.04 | 0.00 | 79 | 1006.5 |